| time (UTC) | temp F | wind direction | speed MPH | gust MPH | rain 1hr in | rain 24hr in | rain mn in | humidity % | barometer mb |
| 20260506215041 | 55 | 360 | 3.0 | 8.0 | 0.00 | 0.00 | 0.00 | 80 | 1031.1 |
| 20260506214559 | 55 | 360 | 3.0 | 8.0 | 0.00 | 0.00 | 0.00 | 80 | 1031.0 |
| 20260506214042 | 55 | 360 | 2.0 | 6.0 | 0.00 | 0.00 | 0.00 | 80 | 1030.9 |
| 20260506213546 | 55 | 360 | 3.0 | 6.0 | 0.00 | 0.00 | 0.00 | 81 | 1030.8 |
| 20260506213056 | 54 | 360 | 3.0 | 6.0 | 0.00 | 0.00 | 0.00 | 81 | 1030.9 |
| 20260506212541 | 54 | 360 | 2.0 | 6.0 | 0.00 | 0.00 | 0.00 | 82 | 1030.8 |
| 20260506212044 | 54 | 360 | 3.0 | 5.0 | 0.00 | 0.00 | 0.00 | 82 | 1030.8 |
| 20260506211554 | 54 | 360 | 3.0 | 5.0 | 0.00 | 0.00 | 0.00 | 82 | 1030.9 |
| 20260506211039 | 54 | 0 | 0.0 | 1.0 | 0.00 | 0.00 | 0.00 | 82 | 1030.7 |
| 20260506210541 | 53 | 0 | 0.0 | 3.0 | 0.00 | 0.00 | 0.00 | 82 | 1030.7 |
| 20260506210051 | 53 | 0 | 0.0 | 3.0 | 0.00 | 0.00 | 0.00 | 82 | 1030.6 |
| 20260506205540 | 53 | 0 | 0.0 | 3.0 | 0.00 | 0.00 | 0.00 | 82 | 1030.6 |
| 20260506205040 | 53 | 0 | 0.0 | 1.0 | 0.00 | 0.00 | 0.00 | 82 | 1030.6 |
| 20260506204549 | 53 | 0 | 0.0 | 0.0 | 0.00 | 0.00 | 0.00 | 81 | 1030.5 |
| 20260506204041 | 53 | 0 | 0.0 | 3.0 | 0.00 | 0.00 | 0.00 | 81 | 1030.5 |
| 20260506203543 | 54 | 0 | 0.0 | 5.0 | 0.00 | 0.00 | 0.00 | 81 | 1030.5 |
| 20260506203049 | 54 | 360 | 2.0 | 5.0 | 0.00 | 0.00 | 0.00 | 81 | 1030.6 |
| 20260506202542 | 54 | 360 | 2.0 | 5.0 | 0.00 | 0.00 | 0.00 | 81 | 1030.5 |
| 20260506202046 | 54 | 360 | 2.0 | 5.0 | 0.00 | 0.00 | 0.00 | 80 | 1030.6 |
| 20260506201547 | 55 | 360 | 2.0 | 5.0 | 0.00 | 0.00 | 0.00 | 80 | 1030.5 |
| 20260506201043 | 55 | 360 | 2.0 | 5.0 | 0.00 | 0.00 | 0.00 | 80 | 1030.4 |
| 20260506200552 | 55 | 360 | 2.0 | 5.0 | 0.00 | 0.00 | 0.00 | 80 | 1030.5 |
| 20260506200051 | 55 | 360 | 2.0 | 5.0 | 0.00 | 0.00 | 0.00 | 79 | 1030.4 |
| 20260506195543 | 55 | 360 | 2.0 | 4.0 | 0.00 | 0.00 | 0.00 | 79 | 1030.4 |
| 20260506195040 | 55 | 360 | 2.0 | 4.0 | 0.00 | 0.00 | 0.00 | 78 | 1030.3 |
| 20260506194549 | 56 | 360 | 2.0 | 5.0 | 0.00 | 0.00 | 0.00 | 78 | 1030.2 |
| 20260506194044 | 56 | 360 | 2.0 | 6.0 | 0.00 | 0.00 | 0.00 | 77 | 1030.3 |
| 20260506193541 | 56 | 360 | 2.0 | 6.0 | 0.00 | 0.00 | 0.00 | 77 | 1030.2 |
| 20260506193054 | 56 | 360 | 3.0 | 6.0 | 0.00 | 0.00 | 0.00 | 77 | 1030.3 |
| 20260506192540 | 56 | 360 | 3.0 | 6.0 | 0.00 | 0.00 | 0.00 | 77 | 1030.3 |
| 20260506192043 | 56 | 360 | 2.0 | 6.0 | 0.00 | 0.00 | 0.00 | 76 | 1030.3 |
| 20260506191553 | 56 | 360 | 3.0 | 6.0 | 0.00 | 0.00 | 0.00 | 76 | 1030.1 |
| 20260506191043 | 56 | 360 | 3.0 | 5.0 | 0.00 | 0.00 | 0.00 | 77 | 1030.1 |
| 20260506190543 | 56 | 360 | 3.0 | 5.0 | 0.00 | 0.00 | 0.00 | 77 | 1030.1 |
| 20260506190053 | 56 | 360 | 2.0 | 5.0 | 0.00 | 0.00 | 0.00 | 77 | 1030.1 |
| 20260506185542 | 56 | 360 | 1.0 | 4.0 | 0.00 | 0.00 | 0.00 | 77 | 1030.1 |
| 20260506185042 | 56 | 360 | 2.0 | 4.0 | 0.00 | 0.00 | 0.00 | 77 | 1030.1 |
| 20260506184555 | 56 | 360 | 2.0 | 4.0 | 0.00 | 0.00 | 0.00 | 77 | 1030.1 |
| 20260506184042 | 56 | 360 | 2.0 | 4.0 | 0.00 | 0.00 | 0.00 | 78 | 1030.1 |
| 20260506183542 | 56 | 360 | 2.0 | 4.0 | 0.00 | 0.00 | 0.00 | 79 | 1030.1 |
| 20260506183101 | 55 | 360 | 1.0 | 3.0 | 0.00 | 0.00 | 0.00 | 79 | 1030.1 |
| 20260506182544 | 55 | 360 | 1.0 | 3.0 | 0.00 | 0.00 | 0.00 | 79 | 1030.0 |
| 20260506182039 | 55 | 360 | 1.0 | 3.0 | 0.00 | 0.00 | 0.00 | 79 | 1030.0 |
| 20260506181602 | 55 | 360 | 1.0 | 4.0 | 0.00 | 0.00 | 0.00 | 79 | 1030.0 |
| 20260506181040 | 55 | 360 | 1.0 | 4.0 | 0.00 | 0.00 | 0.00 | 79 | 1030.0 |
| 20260506180542 | 55 | 360 | 0.0 | 4.0 | 0.00 | 0.00 | 0.00 | 79 | 1030.0 |
| 20260506180054 | 56 | 0 | 0.0 | 3.0 | 0.00 | 0.00 | 0.00 | 79 | 1030.0 |
| 20260506175539 | 56 | 0 | 0.0 | 3.0 | 0.00 | 0.00 | 0.00 | 79 | 1030.0 |
| 20260506175041 | 56 | 360 | 1.0 | 3.0 | 0.00 | 0.00 | 0.00 | 79 | 1030.0 |
| 20260506174553 | 56 | 360 | 1.0 | 3.0 | 0.00 | 0.00 | 0.00 | 79 | 1030.1 |
| 20260506174043 | 56 | 360 | 1.0 | 3.0 | 0.00 | 0.00 | 0.00 | 79 | 1030.1 |
| 20260506173539 | 56 | 0 | 0.0 | 0.0 | 0.00 | 0.00 | 0.00 | 79 | 1030.1 |
| 20260506173116 | 56 | 0 | 0.0 | 0.0 | 0.00 | 0.00 | 0.00 | 79 | 1030.1 |
| 20260506172543 | 56 | 0 | 0.0 | 0.0 | 0.00 | 0.00 | 0.00 | 79 | 1030.1 |
| 20260506172042 | 56 | 0 | 0.0 | 2.0 | 0.00 | 0.00 | 0.00 | 79 | 1030.2 |
| 20260506171554 | 56 | 0 | 0.0 | 2.0 | 0.00 | 0.00 | 0.00 | 78 | 1030.1 |
| 20260506171043 | 56 | 360 | 1.0 | 3.0 | 0.00 | 0.00 | 0.00 | 78 | 1030.2 |
| 20260506170543 | 56 | 360 | 1.0 | 3.0 | 0.00 | 0.00 | 0.00 | 78 | 1030.2 |
| 20260506170105 | 56 | 360 | 0.0 | 2.0 | 0.00 | 0.00 | 0.00 | 77 | 1030.2 |
| 20260506165543 | 57 | 0 | 0.0 | 3.0 | 0.00 | 0.00 | 0.00 | 77 | 1030.2 |
| 20260506165043 | 57 | 360 | 1.0 | 4.0 | 0.00 | 0.00 | 0.00 | 77 | 1030.3 |
| 20260506164546 | 57 | 360 | 1.0 | 4.0 | 0.00 | 0.00 | 0.00 | 76 | 1030.2 |
| 20260506164043 | 57 | 360 | 2.0 | 5.0 | 0.00 | 0.00 | 0.00 | 76 | 1030.4 |
| 20260506163543 | 58 | 360 | 2.0 | 5.0 | 0.00 | 0.00 | 0.00 | 76 | 1030.4 |
| 20260506163055 | 58 | 360 | 3.0 | 6.0 | 0.00 | 0.00 | 0.00 | 76 | 1030.4 |
| 20260506162543 | 58 | 360 | 3.0 | 8.0 | 0.00 | 0.00 | 0.00 | 75 | 1030.5 |
| 20260506162043 | 58 | 360 | 3.0 | 8.0 | 0.00 | 0.00 | 0.00 | 75 | 1030.4 |
| 20260506161549 | 58 | 360 | 3.0 | 9.0 | 0.00 | 0.00 | 0.00 | 75 | 1030.4 |
| 20260506161045 | 58 | 360 | 4.0 | 10.0 | 0.00 | 0.00 | 0.00 | 75 | 1030.5 |
| 20260506160543 | 59 | 360 | 4.0 | 11.0 | 0.00 | 0.00 | 0.00 | 75 | 1030.4 |
| 20260506160050 | 59 | 360 | 5.0 | 11.0 | 0.00 | 0.00 | 0.00 | 75 | 1030.3 |
| 20260506155544 | 59 | 360 | 3.0 | 11.0 | 0.00 | 0.00 | 0.00 | 75 | 1030.3 |
| 20260506155050 | 59 | 360 | 5.0 | 11.0 | 0.00 | 0.00 | 0.00 | 75 | 1030.4 |
| 20260506154608 | 59 | 360 | 4.0 | 11.0 | 0.00 | 0.00 | 0.00 | 75 | 1030.4 |
| 20260506154043 | 59 | 360 | 5.0 | 14.0 | 0.00 | 0.00 | 0.00 | 75 | 1030.4 |
| 20260506153540 | 59 | 360 | 7.0 | 14.0 | 0.00 | 0.00 | 0.00 | 75 | 1030.5 |
| 20260506153049 | 59 | 360 | 6.0 | 12.0 | 0.00 | 0.00 | 0.00 | 75 | 1030.4 |
| 20260506152542 | 59 | 360 | 5.0 | 12.0 | 0.00 | 0.00 | 0.00 | 75 | 1030.4 |
| 20260506152042 | 59 | 360 | 7.0 | 16.0 | 0.00 | 0.00 | 0.00 | 75 | 1030.4 |
| 20260506151551 | 59 | 360 | 7.0 | 16.0 | 0.00 | 0.00 | 0.00 | 74 | 1030.4 |
| 20260506151042 | 60 | 360 | 9.0 | 16.0 | 0.00 | 0.00 | 0.00 | 75 | 1030.4 |
| 20260506150542 | 60 | 360 | 9.0 | 15.0 | 0.00 | 0.00 | 0.00 | 75 | 1030.4 |
| 20260506150047 | 60 | 360 | 7.0 | 14.0 | 0.00 | 0.00 | 0.00 | 75 | 1030.5 |
| 20260506145543 | 60 | 360 | 8.0 | 14.0 | 0.00 | 0.00 | 0.00 | 75 | 1030.6 |
| 20260506145044 | 60 | 360 | 7.0 | 14.0 | 0.00 | 0.00 | 0.00 | 75 | 1030.6 |
| 20260506144556 | 60 | 360 | 6.0 | 12.0 | 0.00 | 0.00 | 0.00 | 75 | 1030.4 |
| 20260506144044 | 60 | 360 | 5.0 | 13.0 | 0.00 | 0.00 | 0.00 | 75 | 1030.5 |
| 20260506143542 | 60 | 360 | 6.0 | 14.0 | 0.00 | 0.00 | 0.00 | 75 | 1030.4 |
| 20260506143053 | 60 | 360 | 9.0 | 14.0 | 0.00 | 0.00 | 0.00 | 74 | 1030.6 |
| 20260506142553 | 61 | 360 | 8.0 | 17.0 | 0.00 | 0.00 | 0.00 | 73 | 1030.5 |
| 20260506142043 | 61 | 360 | 7.0 | 17.0 | 0.00 | 0.00 | 0.00 | 73 | 1030.5 |
| 20260506141551 | 61 | 360 | 8.0 | 17.0 | 0.00 | 0.00 | 0.00 | 71 | 1030.5 |
| 20260506141041 | 62 | 360 | 6.0 | 13.0 | 0.00 | 0.00 | 0.00 | 70 | 1030.4 |
| 20260506140544 | 62 | 360 | 8.0 | 13.0 | 0.00 | 0.00 | 0.00 | 69 | 1030.4 |
| 20260506140051 | 62 | 360 | 5.0 | 13.0 | 0.00 | 0.00 | 0.00 | 68 | 1030.3 |
| 20260506135541 | 62 | 360 | 6.0 | 13.0 | 0.00 | 0.00 | 0.00 | 68 | 1030.3 |
| 20260506135039 | 62 | 360 | 6.0 | 14.0 | 0.00 | 0.00 | 0.00 | 68 | 1030.3 |
| 20260506134551 | 62 | 360 | 6.0 | 15.0 | 0.00 | 0.00 | 0.00 | 68 | 1030.3 |
| 20260506134042 | 62 | 360 | 8.0 | 15.0 | 0.00 | 0.00 | 0.00 | 67 | 1030.3 |
| 20260506133543 | 63 | 360 | 8.0 | 15.0 | 0.00 | 0.00 | 0.00 | 67 | 1030.3 |
| 20260506133102 | 63 | 360 | 6.0 | 13.0 | 0.00 | 0.00 | 0.00 | 67 | 1030.3 |
| 20260506132543 | 63 | 360 | 5.0 | 14.0 | 0.00 | 0.00 | 0.00 | 67 | 1030.3 |
| 20260506132042 | 63 | 360 | 8.0 | 14.0 | 0.00 | 0.00 | 0.00 | 67 | 1030.2 |
| 20260506131548 | 63 | 360 | 8.0 | 14.0 | 0.00 | 0.00 | 0.00 | 66 | 1030.2 |
| 20260506131042 | 63 | 360 | 7.0 | 13.0 | 0.00 | 0.00 | 0.00 | 66 | 1030.2 |
| 20260506130542 | 63 | 360 | 7.0 | 13.0 | 0.00 | 0.00 | 0.00 | 66 | 1030.2 |
| 20260506130047 | 63 | 360 | 6.0 | 13.0 | 0.00 | 0.00 | 0.00 | 66 | 1030.0 |
| 20260506125543 | 64 | 360 | 6.0 | 13.0 | 0.00 | 0.00 | 0.00 | 66 | 1030.0 |
| 20260506125041 | 64 | 360 | 6.0 | 11.0 | 0.00 | 0.00 | 0.00 | 65 | 1029.9 |
| 20260506124553 | 64 | 360 | 5.0 | 11.0 | 0.00 | 0.00 | 0.00 | 65 | 1029.9 |
| 20260506124044 | 64 | 360 | 6.0 | 13.0 | 0.00 | 0.00 | 0.00 | 64 | 1029.8 |
| 20260506123543 | 64 | 360 | 6.0 | 13.0 | 0.00 | 0.00 | 0.00 | 64 | 1029.9 |
| 20260506123050 | 64 | 360 | 7.0 | 14.0 | 0.00 | 0.00 | 0.00 | 64 | 1029.8 |
| 20260506122543 | 64 | 360 | 10.0 | 15.0 | 0.00 | 0.00 | 0.00 | 63 | 1029.8 |
| 20260506122043 | 64 | 360 | 8.0 | 15.0 | 0.00 | 0.00 | 0.00 | 62 | 1029.9 |
| 20260506121550 | 65 | 360 | 9.0 | 15.0 | 0.00 | 0.00 | 0.00 | 60 | 1029.8 |
| 20260506121043 | 65 | 360 | 6.0 | 11.0 | 0.00 | 0.00 | 0.00 | 55 | 1029.8 |
| 20260506120544 | 65 | 360 | 4.0 | 8.0 | 0.00 | 0.00 | 0.00 | 49 | 1029.7 |
| 20260506120055 | 65 | 360 | 3.0 | 6.0 | 0.00 | 0.00 | 0.00 | 49 | 1029.6 |
| 20260506115542 | 65 | 360 | 3.0 | 6.0 | 0.00 | 0.00 | 0.00 | 49 | 1029.5 |
| 20260506115041 | 65 | 360 | 3.0 | 6.0 | 0.00 | 0.00 | 0.00 | 49 | 1029.6 |
| 20260506114549 | 65 | 360 | 3.0 | 6.0 | 0.00 | 0.00 | 0.00 | 48 | 1029.5 |
| 20260506114041 | 65 | 360 | 3.0 | 8.0 | 0.00 | 0.00 | 0.00 | 48 | 1029.5 |
| 20260506113539 | 65 | 360 | 4.0 | 11.0 | 0.00 | 0.00 | 0.00 | 48 | 1029.5 |
| 20260506113049 | 65 | 360 | 5.0 | 13.0 | 0.00 | 0.00 | 0.00 | 48 | 1029.4 |
| 20260506112540 | 65 | 360 | 3.0 | 13.0 | 0.00 | 0.00 | 0.00 | 48 | 1029.4 |
| 20260506112326 | 66 | 360 | 6.0 | 13.0 | 0.00 | 0.00 | 0.00 | 48 | 1029.4 |
| 20260506111551 | 66 | 360 | 6.0 | 12.0 | 0.00 | 0.00 | 0.00 | 48 | 1029.4 |
| 20260506111046 | 65 | 360 | 6.0 | 12.0 | 0.00 | 0.00 | 0.00 | 48 | 1029.4 |
| 20260506110540 | 65 | 360 | 5.0 | 11.0 | 0.00 | 0.00 | 0.00 | 49 | 1029.3 |
| 20260506110054 | 66 | 360 | 5.0 | 11.0 | 0.00 | 0.00 | 0.00 | 49 | 1029.3 |
| 20260506105543 | 65 | 360 | 5.0 | 13.0 | 0.00 | 0.00 | 0.00 | 50 | 1029.3 |
| 20260506105041 | 65 | 360 | 6.0 | 13.0 | 0.00 | 0.00 | 0.00 | 51 | 1029.3 |
| 20260506104610 | 65 | 360 | 7.0 | 13.0 | 0.00 | 0.00 | 0.00 | 52 | 1029.3 |
| 20260506104310 | 65 | 360 | 5.0 | 12.0 | 0.00 | 0.00 | 0.00 | 53 | 1029.3 |
| 20260506103830 | 65 | 360 | 5.0 | 10.0 | 0.00 | 0.00 | 0.00 | 53 | 1029.2 |
| 20260506103050 | 65 | 360 | 4.0 | 10.0 | 0.00 | 0.00 | 0.00 | 54 | 1029.2 |
| 20260506102544 | 65 | 360 | 4.0 | 9.0 | 0.00 | 0.00 | 0.00 | 55 | 1029.2 |
| 20260506102043 | 65 | 360 | 4.0 | 9.0 | 0.00 | 0.00 | 0.00 | 55 | 1029.2 |
| 20260506101550 | 65 | 360 | 4.0 | 9.0 | 0.00 | 0.00 | 0.00 | 55 | 1029.1 |
| 20260506101042 | 65 | 360 | 4.0 | 9.0 | 0.00 | 0.00 | 0.00 | 55 | 1029.1 |
| 20260506100541 | 65 | 360 | 5.0 | 11.0 | 0.00 | 0.00 | 0.00 | 55 | 1029.0 |
| 20260506100046 | 65 | 360 | 7.0 | 11.0 | 0.00 | 0.00 | 0.00 | 55 | 1029.0 |
| 20260506095545 | 65 | 360 | 6.0 | 11.0 | 0.00 | 0.00 | 0.00 | 56 | 1029.0 |
| 20260506095040 | 65 | 360 | 5.0 | 12.0 | 0.00 | 0.00 | 0.00 | 56 | 1028.9 |
| 20260506094614 | 65 | 360 | 7.0 | 12.0 | 0.00 | 0.00 | 0.00 | 57 | 1028.8 |
| 20260506094042 | 65 | 360 | 6.0 | 13.0 | 0.00 | 0.00 | 0.00 | 57 | 1028.7 |
| 20260506093543 | 65 | 360 | 6.0 | 13.0 | 0.00 | 0.00 | 0.00 | 58 | 1028.7 |
| 20260506093056 | 65 | 360 | 8.0 | 13.0 | 0.00 | 0.00 | 0.00 | 58 | 1028.7 |
| 20260506092543 | 65 | 360 | 6.0 | 13.0 | 0.00 | 0.00 | 0.00 | 59 | 1028.6 |
| 20260506092043 | 65 | 360 | 5.0 | 13.0 | 0.00 | 0.00 | 0.00 | 58 | 1028.4 |
| 20260506091627 | 65 | 360 | 8.0 | 15.0 | 0.00 | 0.00 | 0.00 | 58 | 1028.4 |
| 20260506091042 | 65 | 360 | 8.0 | 15.0 | 0.00 | 0.00 | 0.00 | 57 | 1028.3 |
| 20260506090541 | 66 | 360 | 9.0 | 14.0 | 0.00 | 0.00 | 0.00 | 56 | 1028.3 |
| 20260506090055 | 66 | 360 | 7.0 | 14.0 | 0.00 | 0.00 | 0.00 | 55 | 1028.2 |
| 20260506085541 | 66 | 360 | 7.0 | 14.0 | 0.00 | 0.00 | 0.00 | 55 | 1028.1 |
| 20260506085045 | 66 | 360 | 9.0 | 14.0 | 0.00 | 0.00 | 0.00 | 54 | 1028.0 |
| 20260506084551 | 66 | 360 | 6.0 | 14.0 | 0.00 | 0.00 | 0.00 | 55 | 1027.9 |
| 20260506084042 | 66 | 360 | 7.0 | 14.0 | 0.00 | 0.00 | 0.00 | 54 | 1027.9 |
| 20260506083543 | 66 | 360 | 7.0 | 13.0 | 0.00 | 0.00 | 0.00 | 54 | 1027.8 |
| 20260506083056 | 67 | 360 | 7.0 | 12.0 | 0.00 | 0.00 | 0.00 | 53 | 1027.8 |
| 20260506082544 | 67 | 360 | 6.0 | 12.0 | 0.00 | 0.00 | 0.00 | 53 | 1027.7 |
| 20260506082041 | 67 | 360 | 7.0 | 12.0 | 0.00 | 0.00 | 0.00 | 52 | 1027.7 |
| 20260506081600 | 67 | 360 | 5.0 | 12.0 | 0.00 | 0.00 | 0.00 | 52 | 1027.7 |
| 20260506081043 | 67 | 360 | 6.0 | 13.0 | 0.00 | 0.00 | 0.00 | 52 | 1027.7 |
| 20260506080540 | 67 | 360 | 8.0 | 13.0 | 0.00 | 0.00 | 0.00 | 52 | 1027.6 |
| 20260506080106 | 67 | 360 | 7.0 | 13.0 | 0.00 | 0.00 | 0.00 | 52 | 1027.6 |
| 20260506073050 | 68 | 360 | 7.0 | 13.0 | 0.00 | 0.00 | 0.00 | 49 | 1027.2 |
| 20260506072542 | 68 | 360 | 7.0 | 13.0 | 0.00 | 0.00 | 0.00 | 49 | 1027.1 |
| 20260506072043 | 68 | 360 | 6.0 | 11.0 | 0.00 | 0.00 | 0.00 | 49 | 1027.0 |
| 20260506071610 | 68 | 360 | 6.0 | 12.0 | 0.00 | 0.00 | 0.00 | 50 | 1027.1 |
| 20260506071041 | 68 | 360 | 7.0 | 12.0 | 0.00 | 0.00 | 0.00 | 50 | 1027.0 |
| 20260506070922 | 69 | 360 | 7.0 | 12.0 | 0.00 | 0.00 | 0.00 | 48 | 1027.0 |
| 20260506062044 | 68 | 360 | 8.0 | 14.0 | 0.00 | 0.00 | 0.00 | 48 | 1027.0 |
| 20260506061551 | 69 | 360 | 7.0 | 14.0 | 0.00 | 0.00 | 0.00 | 47 | 1026.9 |
| 20260506061042 | 70 | 360 | 4.0 | 13.0 | 0.00 | 0.00 | 0.00 | 46 | 1026.9 |
| 20260506060545 | 70 | 360 | 6.0 | 13.0 | 0.00 | 0.00 | 0.00 | 46 | 1026.8 |
| 20260506051042 | 68 | 360 | 4.0 | 11.0 | 0.00 | 0.00 | 0.00 | 50 | 1027.1 |
| 20260506050542 | 68 | 360 | 7.0 | 13.0 | 0.00 | 0.00 | 0.00 | 50 | 1027.2 |
| 20260506045043 | 69 | 360 | 5.0 | 12.0 | 0.00 | 0.00 | 0.00 | 46 | 1027.2 |
| 20260506044605 | 69 | 360 | 5.0 | 12.0 | 0.00 | 0.00 | 0.00 | 47 | 1027.2 |
| 20260506044047 | 69 | 360 | 6.0 | 12.0 | 0.00 | 0.00 | 0.00 | 46 | 1027.1 |
| 20260506043543 | 68 | 360 | 6.0 | 11.0 | 0.00 | 0.00 | 0.00 | 47 | 1027.2 |
| 20260506043057 | 68 | 360 | 4.0 | 12.0 | 0.00 | 0.00 | 0.00 | 48 | 1027.3 |
| 20260506042543 | 68 | 360 | 6.0 | 12.0 | 0.00 | 0.00 | 0.00 | 48 | 1027.3 |
| 20260506042043 | 68 | 360 | 4.0 | 11.0 | 0.00 | 0.00 | 0.00 | 50 | 1027.3 |
| 20260506041554 | 68 | 360 | 5.0 | 11.0 | 0.00 | 0.00 | 0.00 | 49 | 1027.5 |
| 20260506041042 | 68 | 360 | 5.0 | 11.0 | 0.00 | 0.00 | 0.00 | 49 | 1027.5 |
| 20260506040543 | 69 | 360 | 5.0 | 10.0 | 0.00 | 0.00 | 0.00 | 48 | 1027.6 |
| 20260506040056 | 70 | 114 | 5.0 | 10.0 | 0.00 | 0.00 | 0.00 | 46 | 1027.6 |
| 20260506035543 | 70 | 360 | 3.0 | 8.0 | 0.00 | 0.00 | 0.00 | 49 | 1027.6 |
| 20260506035043 | 68 | 360 | 4.0 | 10.0 | 0.00 | 0.00 | 0.00 | 51 | 1027.7 |
| 20260506034609 | 68 | 360 | 6.0 | 13.0 | 0.00 | 0.00 | 0.00 | 50 | 1027.8 |
| 20260506034042 | 68 | 360 | 5.0 | 13.0 | 0.00 | 0.00 | 0.00 | 51 | 1027.7 |
| 20260506033542 | 68 | 360 | 4.0 | 10.0 | 0.00 | 0.00 | 0.00 | 51 | 1027.8 |
| 20260506033058 | 68 | 360 | 3.0 | 10.0 | 0.00 | 0.00 | 0.00 | 52 | 1027.9 |
| 20260506032543 | 67 | 360 | 5.0 | 10.0 | 0.00 | 0.00 | 0.00 | 53 | 1028.0 |
| 20260506032043 | 66 | 360 | 4.0 | 10.0 | 0.00 | 0.00 | 0.00 | 54 | 1028.0 |
| 20260506031556 | 67 | 360 | 5.0 | 11.0 | 0.00 | 0.00 | 0.00 | 54 | 1028.3 |
| 20260506031046 | 66 | 360 | 4.0 | 11.0 | 0.00 | 0.00 | 0.00 | 54 | 1028.2 |
| 20260506030541 | 67 | 360 | 5.0 | 11.0 | 0.00 | 0.00 | 0.00 | 54 | 1028.3 |
| 20260506030049 | 66 | 360 | 6.0 | 11.0 | 0.00 | 0.00 | 0.00 | 54 | 1028.5 |
| 20260506025542 | 66 | 360 | 4.0 | 12.0 | 0.00 | 0.00 | 0.00 | 55 | 1028.6 |
| 20260506025043 | 66 | 360 | 4.0 | 13.0 | 0.00 | 0.00 | 0.00 | 55 | 1028.6 |
| 20260506024555 | 66 | 360 | 8.0 | 13.0 | 0.00 | 0.00 | 0.00 | 54 | 1028.7 |
| 20260506024045 | 66 | 360 | 6.0 | 12.0 | 0.00 | 0.00 | 0.00 | 54 | 1028.8 |
| 20260506023542 | 66 | 360 | 6.0 | 12.0 | 0.00 | 0.00 | 0.00 | 55 | 1028.9 |
| 20260506023055 | 67 | 360 | 7.0 | 13.0 | 0.00 | 0.00 | 0.00 | 55 | 1028.9 |
| 20260506022544 | 66 | 360 | 7.0 | 14.0 | 0.00 | 0.00 | 0.00 | 57 | 1028.9 |
| 20260506022040 | 66 | 360 | 6.0 | 14.0 | 0.00 | 0.00 | 0.00 | 57 | 1029.0 |
| 20260506021556 | 65 | 360 | 5.0 | 11.0 | 0.00 | 0.00 | 0.00 | 58 | 1028.9 |
| 20260506021040 | 65 | 360 | 4.0 | 13.0 | 0.00 | 0.00 | 0.00 | 59 | 1029.0 |
| 20260506020542 | 65 | 360 | 7.0 | 13.0 | 0.00 | 0.00 | 0.00 | 59 | 1029.2 |
| 20260506020051 | 65 | 360 | 6.0 | 13.0 | 0.00 | 0.00 | 0.00 | 58 | 1029.1 |
| 20260506015543 | 66 | 360 | 6.0 | 12.0 | 0.00 | 0.00 | 0.00 | 57 | 1029.2 |
| 20260506015043 | 66 | 360 | 7.0 | 12.0 | 0.00 | 0.00 | 0.00 | 58 | 1029.2 |
| 20260506014550 | 66 | 360 | 6.0 | 12.0 | 0.00 | 0.00 | 0.00 | 58 | 1029.2 |
| 20260506014046 | 66 | 360 | 7.0 | 12.0 | 0.00 | 0.00 | 0.00 | 58 | 1029.3 |
| 20260506013542 | 66 | 360 | 6.0 | 12.0 | 0.00 | 0.00 | 0.00 | 60 | 1029.2 |
| 20260506013046 | 66 | 360 | 4.0 | 11.0 | 0.00 | 0.00 | 0.00 | 61 | 1029.3 |
| 20260506012545 | 65 | 360 | 5.0 | 12.0 | 0.00 | 0.00 | 0.00 | 62 | 1029.4 |
| 20260506012043 | 64 | 360 | 6.0 | 12.0 | 0.00 | 0.00 | 0.00 | 62 | 1029.3 |
| 20260506011553 | 64 | 360 | 8.0 | 12.0 | 0.00 | 0.00 | 0.00 | 63 | 1029.4 |
| 20260506011043 | 64 | 360 | 7.0 | 11.0 | 0.00 | 0.00 | 0.00 | 64 | 1029.3 |
| 20260506010543 | 65 | 360 | 5.0 | 11.0 | 0.00 | 0.00 | 0.00 | 63 | 1029.5 |
| 20260506010056 | 65 | 360 | 5.0 | 12.0 | 0.00 | 0.00 | 0.00 | 65 | 1029.4 |
| 20260506005543 | 63 | 360 | 5.0 | 12.0 | 0.00 | 0.00 | 0.00 | 67 | 1029.3 |
| 20260506005040 | 63 | 360 | 5.0 | 12.0 | 0.00 | 0.00 | 0.00 | 67 | 1029.5 |
| 20260506004547 | 63 | 360 | 7.0 | 12.0 | 0.00 | 0.00 | 0.00 | 67 | 1029.3 |
| 20260506004040 | 63 | 360 | 8.0 | 13.0 | 0.00 | 0.00 | 0.00 | 68 | 1029.4 |
| 20260506003540 | 63 | 360 | 7.0 | 13.0 | 0.00 | 0.00 | 0.00 | 68 | 1029.4 |
| 20260506003046 | 62 | 360 | 5.0 | 12.0 | 0.00 | 0.00 | 0.00 | 69 | 1029.4 |
| 20260506002539 | 62 | 360 | 7.0 | 13.0 | 0.00 | 0.00 | 0.00 | 69 | 1029.4 |
| 20260506002040 | 62 | 360 | 6.0 | 13.0 | 0.00 | 0.00 | 0.00 | 70 | 1029.3 |
| 20260506001555 | 62 | 360 | 6.0 | 13.0 | 0.00 | 0.00 | 0.00 | 70 | 1029.1 |
| 20260506001043 | 62 | 360 | 5.0 | 12.0 | 0.00 | 0.00 | 0.00 | 70 | 1029.1 |
| 20260506000543 | 62 | 360 | 5.0 | 12.0 | 0.00 | 0.00 | 0.00 | 71 | 1029.1 |
| 20260506000049 | 61 | 360 | 6.0 | 13.0 | 0.00 | 0.00 | 0.00 | 72 | 1029.1 |
| 20260505235543 | 61 | 360 | 6.0 | 13.0 | 0.00 | 0.00 | 0.00 | 72 | 1029.0 |
| 20260505235043 | 60 | 360 | 7.0 | 13.0 | 0.00 | 0.00 | 0.00 | 73 | 1029.0 |
| 20260505234607 | 60 | 360 | 6.0 | 11.0 | 0.00 | 0.00 | 0.00 | 73 | 1028.9 |
| 20260505234045 | 60 | 360 | 7.0 | 11.0 | 0.00 | 0.00 | 0.00 | 73 | 1028.9 |
| 20260505233540 | 60 | 360 | 7.0 | 10.0 | 0.00 | 0.00 | 0.00 | 72 | 1028.8 |
| 20260505233049 | 60 | 360 | 5.0 | 10.0 | 0.00 | 0.00 | 0.00 | 72 | 1028.8 |
| 20260505232540 | 60 | 360 | 6.0 | 10.0 | 0.00 | 0.00 | 0.00 | 72 | 1028.8 |
| 20260505232043 | 60 | 360 | 5.0 | 10.0 | 0.00 | 0.00 | 0.00 | 72 | 1028.7 |
| 20260505231547 | 60 | 360 | 6.0 | 9.0 | 0.00 | 0.00 | 0.00 | 72 | 1028.6 |
| 20260505231047 | 60 | 360 | 4.0 | 9.0 | 0.00 | 0.00 | 0.00 | 72 | 1028.6 |
| 20260505230543 | 60 | 360 | 5.0 | 9.0 | 0.00 | 0.00 | 0.00 | 72 | 1028.4 |
| 20260505230052 | 60 | 360 | 4.0 | 9.0 | 0.00 | 0.00 | 0.00 | 72 | 1028.4 |
| 20260505225543 | 60 | 360 | 4.0 | 8.0 | 0.00 | 0.00 | 0.00 | 72 | 1028.1 |
| 20260505225043 | 60 | 360 | 4.0 | 8.0 | 0.00 | 0.00 | 0.00 | 72 | 1028.2 |
| 20260505224549 | 60 | 360 | 4.0 | 8.0 | 0.00 | 0.00 | 0.00 | 72 | 1028.1 |
| 20260505224042 | 60 | 360 | 4.0 | 8.0 | 0.00 | 0.00 | 0.00 | 72 | 1028.1 |
| 20260505223544 | 59 | 360 | 3.0 | 8.0 | 0.00 | 0.00 | 0.00 | 73 | 1028.0 |
| 20260505223104 | 59 | 360 | 2.0 | 5.0 | 0.00 | 0.00 | 0.00 | 73 | 1028.0 |
| 20260505222542 | 59 | 360 | 3.0 | 6.0 | 0.00 | 0.00 | 0.00 | 73 | 1027.9 |
| 20260505222043 | 59 | 360 | 3.0 | 6.0 | 0.00 | 0.00 | 0.00 | 73 | 1027.8 |
| 20260505221550 | 59 | 360 | 3.0 | 6.0 | 0.00 | 0.00 | 0.00 | 73 | 1027.8 |
| 20260505221042 | 59 | 360 | 2.0 | 6.0 | 0.00 | 0.00 | 0.00 | 73 | 1027.8 |
| 20260505220543 | 59 | 360 | 3.0 | 6.0 | 0.00 | 0.00 | 0.00 | 73 | 1027.8 |
| 20260505220055 | 59 | 360 | 2.0 | 6.0 | 0.00 | 0.00 | 0.00 | 72 | 1027.6 |
| 20260505215543 | 59 | 360 | 3.0 | 6.0 | 0.00 | 0.00 | 0.00 | 72 | 1027.6 |